GW0458 Weather Reports


time (UTC)temp
C
wind
direction
speed
KPH
gust
KPH
rain 1hr
cm
rain 24hr
cm
rain mn
cm
humidity
%
barometer
mb
20260904131417 10 201 0.0 0.0 0.00 0.00 0.00 99 1020.1
20260904124416 10 197 0.0 1.6 0.00 0.00 0.00 99 1019.9
20260904121416 10 200 0.0 0.0 0.00 0.00 0.00 99 1019.5
20260904114416 10 199 0.0 0.0 0.00 0.00 0.00 99 1019.5
20260904111414 10 178 0.0 0.0 0.00 0.00 0.00 99 1019.3
20260904104413 11 204 0.0 0.0 0.00 0.00 0.00 99 1019.0
20260904101411 11 201 0.0 0.0 0.00 0.00 0.00 99 1018.8
20260904094411 11 204 0.0 0.0 0.00 0.00 0.00 99 1018.8
20260904091408 11 198 0.0 1.6 0.00 0.00 0.00 99 1018.8
20260904084403 11 200 0.0 0.0 0.00 0.00 0.00 99 1019.0
20260904081358 11 202 0.0 0.0 0.00 0.00 0.00 99 1018.5
20260904074357 12 200 0.0 0.0 0.00 0.00 0.00 99 1018.8
20260904071353 12 206 0.0 0.0 0.00 0.00 0.00 99 1019.1
20260904064351 12 200 1.6 1.6 0.00 0.00 0.00 99 1018.9
20260904061349 12 203 0.0 1.6 0.00 0.00 0.00 97 1018.8
20260904054345 12 205 0.0 0.0 0.00 0.00 0.00 96 1018.4
20260904051342 12 205 0.0 0.0 0.00 0.00 0.00 96 1018.5
20260904044342 12 206 0.0 0.0 0.00 0.00 0.00 99 1018.8
20260904041339 12 204 0.0 0.0 0.00 0.00 0.00 99 1018.7
20260904034334 12 197 0.0 0.0 0.00 0.00 0.00 97 1018.4
20260904031329 13 201 1.6 1.6 0.00 0.00 0.00 94 1018.2
20260904024324 13 193 0.0 1.6 0.00 0.00 0.00 96 1018.1
20260904021321 13 171 3.2 3.2 0.00 0.00 0.00 97 1018.1
20260904014316 14 199 0.0 1.6 0.00 0.00 0.00 95 1017.8
20260904011311 16 204 0.0 1.6 0.00 0.00 0.00 87 1017.5
20260904004307 17 191 0.0 0.0 0.00 0.00 0.00 71 1017.5
20260904001307 17 70 3.2 3.2 0.00 0.00 0.00 68 1017.4
20260903234306 18 342 1.6 3.2 0.00 0.00 0.00 69 1017.2
20260903231304 18 189 0.0 1.6 0.00 0.00 0.00 70 1017.1
20260903224301 17 193 0.0 1.6 0.00 0.00 0.00 72 1017.5
20260903221301 17 209 0.0 1.6 0.00 0.00 0.00 76 1017.8
20260903214301 17 206 0.0 0.0 0.00 0.00 0.00 80 1018.0
20260903211257 17 207 0.0 0.0 0.00 0.00 0.00 77 1017.5
20260903204256 20 228 1.6 1.6 0.00 0.00 0.00 72 1017.4
20260903201254 18 209 0.0 1.6 0.00 0.00 0.00 73 1017.2
20260903194252 17 216 0.0 0.0 0.00 0.00 0.00 79 1017.5
20260903191250 17 167 1.6 1.6 0.00 0.00 0.00 86 1017.4
20260903184249 16 203 1.6 1.6 0.00 0.00 0.00 81 1017.4
20260903181244 15 197 1.6 1.6 0.00 0.00 0.00 85 1017.4
20260903174238 15 197 0.0 1.6 0.00 0.00 0.00 87 1017.3
20260903171233 15 183 3.2 4.8 0.00 0.00 0.00 85 1017.0
20260903164229 13 177 4.8 4.8 0.00 0.00 0.00 91 1017.0
20260903161225 13 197 4.8 8.0 0.00 0.00 0.00 93 1017.0
20260903154222 12 94 3.2 3.2 0.00 0.00 0.00 95 1016.8
20260903151217 11 213 3.2 3.2 0.00 0.00 0.00 98 1017.0
20260903144215 11 174 1.6 3.2 0.00 0.00 0.00 99 1017.0
20260903141213 11 189 3.2 3.2 0.00 0.00 0.00 99 1016.9
20260903134212 11 200 1.6 3.2 0.00 0.00 0.00 99 1016.9